LMRST-SAT

Last updated on Wed Nov 05 2025 00:03:48 GMT+0000 (Coordinated Universal Time)

1 40971U 15058H 25308.16870346 .00002534 00000+0 23848-3 0 9994 2 40971 64.7755 253.3651 0142100 146.2305 214.7960 14.88922521 80033
UTC large
Height (km)
Speed (km/s)
/
Latitude / Longitude
Inclination (degrees)
Orbital Period (minutes)
Azimuth
Elevation
Range (km)
Doppler Factor

Next 0 passes for location: London (51.5072 / 0.1276)

Sorry there are no passes over London.